Location: Klein M�hlingen
(51.9472°N, 11.7453°E)
Time: 10:49:05
(UTC+00:00)

Cosmos 1766 Rocket - Pass Details

Date: 09 April 2020
Orbit: 604 x 634 km, 82.5° (Epoch: 24 May)

Event Time Altitude Azimuth Distance (km) Brightness Sun altitude
Rises 20:45:33 0° 348° (NNW) 2,943 8.1 -22.1°
Reaches altitude 10° 20:47:48 10° 347° (NNW) 2,027 7.1 -22.3°
Maximum altitude 20:52:18 80° 263° (W) 647 3.6 -22.8°
Enters shadow 20:52:54 65° 195° (SSW) 694 3.5 -22.8°
